Regional Weather Roundup
Issued by NWS

Home | Current Version | Previous Version | Graphics & Text | Print | Product List | Glossary On
Versions: 1 2 3 4 5 6 7 8 9 10 11 12 13 14 15 16 17 18 19 20 21 22 23 24 25 26 27 28 29 30 31 32 33 34 35 36 37 38 39 40 41 42 43 44 45 46 47 48 49 50
000
ASUS45 KSLC 261510
RWRUT

UTAH REGIONAL WEATHER ROUNDUP
NATIONAL WEATHER SERVICE SALT LAKE CITY UT
800 AM MST WED NOV 26 2014

UTZ001>011-023>025-261600-

NORTHERN UTAH

CITY           SKY/WX    TMP DP  RH WIND       PRES   REMARKS
HILL AFB       CLEAR     35  30  83 S7        30.37R WCI  29
LOGAN          CLEAR     36  31  82 NW7       30.35R WCI  30
OGDEN          CLEAR     38  31  76 S8        30.36R WCI  32
PROVO AIRPORT  PTCLDY    27  23  86 CALM      30.41S
SALT LAKE CITY PTCLDY    39  27  62 SE9       30.38R WCI  33
VERNAL         PTCLDY    29  23  78 W5        30.31R WCI  24
WENDOVER       CLEAR     37  27  65 SE5       30.38R WCI  34
HEBER CITY     CLEAR     27  25  93 CALM      30.39R
WEST JORDAN    CLEAR     36  34  93 SW8       30.39R WCI  29

$$

UTZ012>022-026-027-261600-

SOUTHERN/CENTRAL UTAH

CITY           SKY/WX    TMP DP  RH WIND       PRES   REMARKS
BLANDING       CLEAR     32  16  52 NE6       30.45R WCI  27
BRYCE CANYON   PTCLDY    20  17  88 W3        30.48R
CEDAR CITY     PTCLDY    25  19  78 CALM      30.43R
DELTA          PTCLDY    25  22  89 CALM      30.43R
MILFORD        PTCLDY    25  16  68 S6        30.44R WCI  18
MOAB/CYNLANDS  CLEAR     24   8  50 CALM      30.38R
PRICE          PTCLDY    32  22  66 CALM      30.36R
ST GEORGE      SUNNY     30   7  37 CALM      30.48R
KANAB          PTCLDY    27  10  50 E3        30.48R

$$

REGIONAL REPORTS     COLORADO/ARIZONA

CITY           SKY/WX    TMP DP  RH WIND       PRES   REMARKS
CRAIG, CO      MOCLDY    27  24  89 CALM      30.29R
GRAND JUNCTION PTCLDY    26  20  77 E3        30.39R
RIFLE          PTCLDY    22  18  85 CALM      30.39R
MONTROSE       PTCLDY    27  20  75 SE6       30.39R WCI  20
CORTEZ         CLEAR     25  18  74 NE6       30.39R WCI  18
PAGE, AZ       CLEAR     39   9  29 CALM      30.40R
GRAND CANYON   PTCLDY    20   8  60 CALM      30.45R
KINGMAN        CLEAR     38   9  30 E5        30.38S WCI  34
FLAGSTAFF      CLEAR     25  16  68 CALM      30.44R

$$

REGIONAL REPORTS    NEVADA/IDAHO/WYOMING

CITY           SKY/WX    TMP DP  RH WIND       PRES   REMARKS
LAS VEGAS, NV  CLEAR     45  15  30 S9        30.36R
ELY            PTCLDY    20  32 100 S10       30.48R WCI   9
ELKO           CLEAR     24  21  88 CALM      30.44R
POCATELLO, ID  MOCLDY    45  37  73 SW25G33   30.31R
BURLEY         PTCLDY    43  32  65 W14       30.32R
EVANSTON, WY   PTCLDY    34  28  79 W15       30.35R WCI  24
ROCK SPRINGS   MOCLDY    35  29  78 W29G36    30.23R WCI  22

$$



USA.gov is the U.S. government's official web portal to all federal, state and local government web resources and services.